Regional Weather Roundup
Issued by NWS

Home | Current Version | Previous Version | Graphics & Text | Print | Product List | Glossary On
Versions: 1 2 3 4 5 6 7 8 9 10 11 12 13 14 15 16 17 18 19 20 21 22 23 24 25 26 27 28 29 30 31 32 33 34 35 36 37 38 39 40 41 42 43 44 45 46 47 48 49 50
000
ASUS43 KDMX 250906
RWRIA

WEATHER ROUNDUP FOR IOWA
NATIONAL WEATHER SERVICE DES MOINES IA
400 AM CDT TUE APR 25 2017

NOTE: "FAIR" INDICATES FEW OR NO CLOUDS BELOW 12,000 FEET WITH NO
SIGNIFICANT WEATHER AND/OR OBSTRUCTIONS TO VISIBILITY.

* - THESE STATIONS ARE NOT NWS STATIONS...THUS NOT UNDER NWS
QUALITY CONTROL.  THEY ALSO DO NOT REPORT WEATHER SUCH
AS PRECIPITATION OR FOG.

IAZ001>003-012>014-020>022-031>034-043>046-251000-
   NORTHWEST IOWA

CITY           SKY/WX    TMP DP  RH WIND       PRES   REMARKS
CARROLL *      PTCLDY    54  43  66 CALM      29.50R
CHEROKEE *     PTCLDY    46  43  89 N8        29.52F
DENISON *      PTCLDY    48  43  81 CALM      29.52F
LE MARS *      MOCLDY    45  41  87 N5        29.56R
ORANGE CITY *  CLOUDY    43  39  87 NW9       29.54R
SHELDON *      CLOUDY    43  39  87 NW10      29.52R
SIOUX CITY     CLOUDY    45  40  82 NW14      29.55S
SPENCER        CLEAR     47  43  86 N8        29.52R
STORM LAKE *   PTCLDY    48  43  81 NW9       29.51S
$$

IAZ055>058-069>071-079>083-090>094-251000-
   SOUTHWEST IOWA

CITY           SKY/WX    TMP DP  RH WIND       PRES   REMARKS
ATLANTIC *     MOCLDY    55  45  67 S7        29.49F
AUDUBON *      MOCLDY    55  45  67 S5        29.51S
CLARINDA *       N/A     54  45  71 S6        29.52S
COUNCIL BLFS * CLOUDY    52  46  82 N10       29.48F
CRESTON *      CLOUDY    57  41  54 S10       29.52F
HARLAN  *      PTCLDY    52  45  76 CALM      29.53S
LAMONI         MOCLDY    56  37  49 S8        29.53F
RED OAK *      CLOUDY    55  45  67 CALM      29.49F
SHENANDOAH *   CLOUDY    57  46  67 S6        29.49F
$$

IAZ047>049-059>061-072>074-084-251000-
   CENTRAL IOWA

CITY           SKY/WX    TMP DP  RH WIND       PRES   REMARKS
AMES           PTCLDY    52  40  63 SE6       29.51F
ANKENY *       MOCLDY    55  37  50 S5        29.53F
BOONE *        CLEAR     52  37  58 SE8       29.50F
CHARITON *     PTCLDY    52  39  62 S8        29.54F
DES MOINES     PTCLDY    58  38  47 S7        29.53S
GRINNELL*      PTCLDY    55  35  47 S12       29.56S
KNOXVILLE *    PTCLDY    55  36  47 SE6       29.53F
MARSHALLTOWN   PTCLDY    57  36  45 SE12      29.53F
NEWTON *       PTCLDY    52  36  54 SE10      29.54S
PELLA *        CLEAR     55  35  47 SE7       29.56S
PERRY *          N/A     55  39  54 S10       29.50S
$$

IAZ004>006-015-016-023>025-035-036-251000-
   NORTH CENTRAL IOWA

CITY           SKY/WX    TMP DP  RH WIND       PRES   REMARKS
ALGONA *       CLOUDY    59  41  51 S10       29.50S
CLARION *      PTCLDY    55  37  50 S8        29.50S
ESTHERVILLE    CLOUDY    46  45  96 NW10      29.51R
FORT DODGE *   CLEAR     54  36  50 SW6       29.52R
MASON CITY     CLOUDY    55  37  50 S9        29.53S
FOREST CITY *  CLOUDY    54  37  54 SE8       29.50F
WEBSTER CITY * CLEAR     54  37  54 SE10      29.48F
IOWA FALLS *   MOCLDY    55  37  52 SE10      29.54S
$$

IAZ007>011-017>019-026>030-037>042-050>054-066-251000-
   NORTHEAST IOWA

CITY           SKY/WX    TMP DP  RH WIND       PRES   REMARKS
CEDAR RAPIDS   PTCLDY    56  37  49 S9        29.57F
CHARLES CITY * CLOUDY    59  32  36 SE10      29.55S
CLINTON *      PTCLDY    52  36  54 SE10      29.64F
DECORAH *      CLOUDY    54  34  47 SE10      29.56F
DUBUQUE        PTCLDY    54  33  45 S13       29.62F
MONTICELLO *   CLEAR     54  32  43 SE12G17   29.59F
OELWEIN *      CLOUDY    55  36  47 SE10      29.57F
WATERLOO       CLOUDY    59  34  39 SE10      29.54F
$$

IAZ064-065-067-068-078-251000-
   EAST CENTRAL IOWA

CITY           SKY/WX    TMP DP  RH WIND       PRES   REMARKS
DAVENPORT      CLOUDY    55  32  41 SE10      29.63F
IOWA CITY      MOCLDY    54  35  48 SE5       29.60F
MT. PLEASANT * CLOUDY    55  38  51 S10       29.61S
MUSCATINE *    CLOUDY    48  36  61 CALM      29.61F
QUAD CITIES    CLOUDY    55  33  43 S13       29.62F
$$

IAZ062-063-075>077-085>089-095>099-251000-
   SOUTHEAST IOWA

CITY           SKY/WX    TMP DP  RH WIND       PRES   REMARKS
BURLINGTON     MOCLDY    59  40  49 S10       29.61F
FAIRFIELD *    CLOUDY    57  36  44 S10       29.58F
FORT MADISON * CLOUDY    57  39  51 S8        29.62F
KEOKUK *       PTCLDY    55  39  54 S7        29.61F
OSKALOOSA *      N/A     52  36  54 S12       29.57F
CENTERVILLE *    N/A     50  37  62 CALM      29.58F
OTTUMWA        CLEAR     56  35  45 S12       29.56F
WASHINGTON *   MOCLDY    55  37  50 S10       29.60F
$$

ABBREVIATIONS USED IN REMARKS
   TC - TEMPERATURES IN CELSIUS
  WCI - WIND CHILL INDEX
   HX - HEAT INDEX
  VSB - VISIBILITY
$$





USA.gov is the U.S. government's official web portal to all federal, state and local government web resources and services.